{"data":{"norad_id":67334,"intl_designator":"2026-003A","name":"STARLINK-35343","alt_names":[],"object_type":"PAYLOAD","status":"ACTIVE","operator":null,"country":"US","launch_date":"2026-01-09","launch_site_code":"AFETR","launch_vehicle":null,"mission":null,"orbit_class":"UNKNOWN","rcs_meters":null,"size_class":null,"mass_kg":null,"dimensions":null,"purposes":["comms"],"wikipedia_slug":null,"has_3d_model":false,"image_url":null,"decayed_at":null,"tle_current":{"epoch":"2026-05-25T01:30:37.209888Z","epoch_age_seconds":72775,"freshness":"FRESH","line1":"1 67334U 26003A   26145.06293067  .00026181  00000+0  95686-3 0  9999","line2":"2 67334  43.0013 155.8047 0000546 217.6603 142.4211 15.27603690 20507","mean_motion":15.2760369,"eccentricity":5.46e-5,"inclination_deg":43.0013,"raan_deg":155.8047,"arg_perigee_deg":217.6603,"mean_anomaly_deg":142.4211,"bstar":0.00095686,"rev_number":2050,"period_min":94.265286829727,"perigee_km":482.60354368619,"apogee_km":483.35277746172,"semimajor_km":6861.115160574,"source":"CELESTRAK","updated_at":"2026-05-25T13:38:21.521460Z"}}}